Погода в Горском

Украина / Луганская область     48˚44′28″N   38˚29′41″E
темп.,
°C
ветер,
м/с
пор.,
м/с
влажн.,
%
обл.,
%
осадки,
мм/ч
давл.,
гПа
погр.,
м
6 декабря, вс
вс623:00−6˚в612510 0.0 1037411
02:00−7˚в611570 0.0 1038411
05:00−7˚в611620 0.0 1037416
08:00−7˚в611760 0.0 1038439
11:00−5˚в711614 0.0 1037550
14:00−5˚в711592 0.0 1037636
17:00−6˚в713700 0.0 1037617
20:00−7˚в714720 0.0 1038584
7 декабря, пн
пн723:00−8˚в714700 0.0 1038529
02:00−8˚в713700 0.0 1038517
05:00−9˚в714670 0.0 1037513
08:00−8˚в815630 0.0 1037515
11:00−6˚в813530 0.0 1036546
14:00−4˚в813500 0.0 1035605
17:00−6˚в714620 0.0 1036532
20:00−7˚в713660 0.0 1036511
8 декабря, вт
вт823:00−7˚в714670 0.0 1035466
02:00−8˚в714690 0.0 1034444
05:00−8˚в714670 0.0 1033438
08:00−8˚в714640 0.0 1034443
11:00−4˚в713490 0.0 1033533
14:00−3˚в713460 0.0 1032564
17:00−5˚в715560 0.0 1032497
20:00−5˚в714590 0.0 1032457
9 декабря, ср
ср923:00−6˚в614600 0.0 1032439
02:00−7˚в714620 0.0 1032431
05:00−7˚в713650 0.0 1032421
08:00−7˚в713670 0.0 1033434
11:00−4˚вюв7126045 0.0 1033508
14:00−2˚в7125671 0.0 1032575
17:00−4˚в6136124 0.0 1032468
20:00−5˚вюв6126842 0.0 1032447
10 декабря, чт
чт1023:00−4˚вюв6117099 0.0 1032426
02:00−5˚в6117894 0.0 1033354
05:00−5˚вюв6128049 0.0 1032346
08:00−6˚вюв6118044 0.0 1033342
11:00−3˚вюв610660 0.0 1032397
14:00−2˚вюв610610 0.0 1031443
17:00−3˚вюв612640 0.0 1032385
20:00−4˚в6116816 0.0 1031378